Regional Weather Roundup
Issued by NWS

Home | Current Version | Previous Version | Text Only | Print | Product List | Glossary Off
Versions: 1 2 3 4 5 6 7 8 9 10 11 12 13 14 15 16 17 18 19 20 21 22 23 24 25 26 27 28 29 30 31 32 33 34 35 36 37 38 39 40 41 42 43 44 45 46 47 48 49 50

000
ASUS43 KLMK 251602
RWRKY
KENTUCKY REGIONAL WEATHER ROUNDUP
NATIONAL WEATHER SERVICE LOUISVILLE KY
1200 PM EDT SUN JUN 25 2017

NOTE "FAIR" INDICATES FEW OR NO CLOUDS BELOW 12,000 FEET
WITH NO SIGNIFICANT WEATHER AND/OR OBSTRUCTIONS TO VISIBILITY.

KYZ001>023-026-027-061>063-070>075-251700-
WESTERN AND SOUTH CENTRAL KENTUCKY

CITY           SKY/WX    TMP DP  RH WIND       PRES   REMARKS
PADUCAH        SUNNY     79  53  40 W9        30.24R
HENDERSON      SUNNY     78  52  40 W12       30.22S
OWENSBORO      SUNNY     78  51  38 W14       30.22S
HOPKINSVILLE   SUNNY     77  49  37 W6        30.24S
BOWLING GREEN  SUNNY     77  50  38 VRB5      30.24S
GLASGOW        NOT AVBL
$$

KYZ024-025-028>034-038-045-046-053-251700-
NORTH CENTRAL KENTUCKY

CITY           SKY/WX    TMP DP  RH WIND       PRES   REMARKS
LOUISVILLE/SDF SUNNY     80  48  32 W16       30.20R
LOUISVILLE/LOU SUNNY     79  47  32 W10G22    30.20S
FORT KNOX      SUNNY     76  52  43 W7        30.20S
$$

KYZ035>037-039>044-047>052-055>060-089>105-251700-
NORTHEAST KENTUCKY

CITY           SKY/WX    TMP DP  RH WIND       PRES   REMARKS
LEXINGTON      SUNNY     75  48  38 W14       30.22R
COVINGTON      SUNNY     75  49  39 W20G26    30.17S
FRANKFORT      SUNNY     75  49  39 SW9       30.19S
$$

KYZ054-064>069-076>088-106>120-251700-
SOUTHEAST KENTUCKY

CITY           SKY/WX    TMP DP  RH WIND       PRES   REMARKS
JACKSON        SUNNY     72  52  49 VRB5      30.22S
LONDON         SUNNY     74  44  34 W8        30.23S
SOMERSET       SUNNY     72  45  37 N5        30.24S
MIDDLESBORO    SUNNY     73  53  49 N3        30.23S
MONTICELLO     SUNNY     74  50  42 N16       30.25S
$$




USA.gov is the U.S. government's official web portal to all federal, state and local government web resources and services.